Regional Weather Roundup
Issued by NWS Grand Forks, ND

Home | Current Version | Previous Version | Graphics & Text | Print | Product List | Glossary On
Versions: 1 2 3 4 5 6 7 8 9 10 11 12 13 14 15 16 17 18 19 20 21 22 23 24 25 26 27 28 29 30 31 32 33 34 35 36 37 38 39 40 41 42 43 44 45 46 47 48 49 50
000
ASUS43 KFGF 270310
RWRFGF
PRAIRIE TO PINES  WEATHER ROUNDUP
NATIONAL WEATHER SERVICE EASTERN NORTH DAKOTA/GRAND FORKS ND
1000 PM CDT FRI MAY 26 2017

 **SATELLITE DATA USED TO AUGMENT SKY COVER AT AUTOMATED STATIONS**
 *****  WEATHER ACROSS EASTERN NORTH DAKOTA  *****

CITY           SKY/WX    TMP DP  RH WIND       PRES   REMARKS
GRAND FORKS    FAIR      58  43  57 W8        29.75R
GRAND FRKS AFB FAIR      55  42  62 W6        29.76R
DEVILS LAKE    FAIR      57  44  62 SW7       29.78R
FARGO          FAIR      59  43  55 W8        29.80R
WAHPETON ARPT  FAIR      54  41  62 W6        29.82R
$$

 ***** WEATHER ACROSS CENTRAL AND WESTERN NORTH DAKOTA  *****

CITY           SKY/WX    TMP DP  RH WIND       PRES   REMARKS
BISMARCK       FAIR      57  37  47 SW5       29.83R
MINOT          FAIR      58  35  42 W7        29.76R
JAMESTOWN      FAIR      56  41  57 SW5       29.81R
MINOT AFB      FAIR      55  35  47 W8        29.75R
GARRISON         N/A     58  33  39 W8        29.80R
WILLISTON      FAIR      56  39  53 W9        29.83R
DICKINSON      FAIR      50  33  52 W7        29.85R
HETTINGER      FAIR      52  36  54 NW5       29.90R
$$

 *****  OTHER AIRPORT OBSERVATIONS IN OUR AREA  *****

CITY           SKY/WX    TMP DP  RH WIND       PRES   REMARKS
WALHALLA       NOT AVBL
GRAFTON AIRPOR FAIR      57  45  62 SW6       29.74S
VALLEY CITY AR FAIR      54  43  66 W8        29.83R
CANDO          NOT AVBL
CAVALIER APRT  FAIR      57  43  58 CALM      29.72R
GWINNER        CLEAR     57  43  58 MISG      29.83R
SHEYENNE NWR     N/A     57  44  61 W5        29.95S
ROLLA          FAIR      50  39  66 SW7       29.75R
 ***** THE ABOVE OBSERVATIONS ARE NON NWS ARE NOT QUALITY
       CONTROLLED AND MAY MIS-REPORT RAIN FOR SNOW...
$$

  *****  WEATHER ACROSS NORTHERN MINNESOTA  *****

CITY           SKY/WX    TMP DP  RH WIND       PRES   REMARKS
FLAG ISLAND    FAIR      61  45  55 W7        29.70R
WARROAD        MOCLDY    57  48  72 S5        29.73R
ROSEAU         FAIR      57  48  72 SW3       29.73R
HALLOCK        FAIR      59  43  55 W8        29.72R
THF RVR FALLS  FAIR      60  43  53 W10       29.78R
BAUDETTE       FAIR      59  43  55 SW5       29.73R
WASKISH        FAIR      57  48  72 SW8       29.75R
CROOKSTON      FAIR      57  43  58 W8        29.78R
STEPHEN NDAWN    N/A     57  41  54 SW3         N/A
GREENBUSH NDAW   N/A     57  45  62 SW5         N/A
$$
  *****  WEATHER ACROSS CENTRAL AND WEST MINNESOTA  *****

CITY           SKY/WX    TMP DP  RH WIND       PRES   REMARKS
FOSSTON        FAIR      54  41  62 S6        29.79R
BEMIDJI        FAIR      57  42  57 W3        29.78R
PARK RAPIDS    LGT RAIN  57  41  55 W5        29.80R
ELBOW LAKE     FAIR      57  45  62 NW7       29.84R
WADENA         FAIR      57  45  62 W3        29.81R
DETROIT LAKES  FAIR      59  43  55 W3        29.82R
MOORHEAD       FAIR      61  43  51 W7        29.81R
FERGUS FALLS   FAIR      57  45  62 W6        29.81R
MORRIS MN      FAIR      57  46  67 W6        29.84R
STAPLES        FAIR      55  45  67 W6        29.81R
$$
  *****  WEATHER ELSEWHERE ACROSS MINNESOTA  *****

CITY           SKY/WX    TMP DP  RH WIND       PRES   REMARKS
DULUTH         FAIR      51  48  89 SE5       29.78R
INTRNTL FALLS  FAIR      62  44  51 W6        29.73R
ELY            FAIR      55  54  94 SE6       29.76R
CLOQUET        FAIR      52  48  87 CALM      29.78R
WHEATON        FAIR      59  43  55 CALM      29.85R
BRAINERD       FAIR      63  45  51 W5        29.79R
HIBBING        FAIR      53  45  74 CALM      29.74R
ALEXANDRIA     FAIR      57  45  64 W6        29.84R
SAINT CLOUD    FAIR      60  48  64 W8        29.80R
MINNEAPOLIS    FAIR      67  46  47 W5        29.79R
$$

  *****  WEATHER ACROSS SOUTH DAKOTA  *****

CITY           SKY/WX    TMP DP  RH WIND       PRES   REMARKS
SIOUX FALLS    FAIR      61  45  55 W5        29.89R
BROOKINGS      FAIR      57  46  66 NW6       29.89R
WATERTOWN      FAIR      58  44  60 W5        29.88R
HURON          FAIR      59  47  64 SW5       29.87R
SISSETON         N/A     56  48  74 W6        29.83R
ABERDEEN       FAIR      58  42  55 CALM      29.85R
MITCHELL       FAIR      61  44  53 W6        29.89R
PIERRE         MOCLDY    64  38  38 W5        29.87S
MOBRIDGE       FAIR      51  39  63 CALM      29.85R
RAPID CITY     LGT RAIN  52  47  83 S5        29.96R
$$

  *****  SOME WEATHER IN NEARBY STATES *****

CITY           SKY/WX    TMP DP  RH WIND       PRES   REMARKS
GLASGOW MT     FAIR      56  39  53 NW6       29.87R
GREAT FALLS MT MOCLDY    53  39  59 SW9       29.96R
CHEYENNE WY    CLOUDY    46  44  93 N18G25    30.00S
SCOTTSBLUFF NE LGT RAIN  51  48  89 NE10      29.99R
OMAHA NE       FAIR      63  54  72 N3        29.86R
DES MOINES IA  FAIR      71  63  75 SE7       29.83R
DAVENPORT IA   MOCLDY    62  59  90 NE9       29.85R
CHICAGO IL     LGT RAIN  56  53  90 E6        29.84S
EAU CLAIRE WI  FAIR      66  56  70 S10       29.79R
LA CROSSE WI   FAIR      65  58  78 S7        29.82R
$$

  *****  SOME NATIONAL WEATHER *****

CITY           SKY/WX    TMP DP  RH WIND       PRES   REMARKS
LA GUARDIA NY  FAIR      66  53  63 NW9       29.78R
RALEIGH NC     FAIR      68  59  73 CALM      29.96R
ATLANTA GA     FAIR      74  61  63 SW6       30.01R
NEW ORLEANS LA FAIR      76  72  87 SE7       30.00R
OKLAHOMA CITY  FAIR      80  66  62 E3        29.79R
ALBUQUERQUE NM FAIR      76   7   7 W17       29.95R
SALT LAKE CITY FAIR      60  40  47 N10       29.98R
LOS ANGELES CA FAIR      62  53  72 W14       29.99S
BOISE ID       FAIR      70  34  26 NW10      29.96R
SEATTLE WA     FAIR      75  47  36 N9        29.97R
$$

*** WEATHER ACROSS MANITOBA...SASKATCHEWAN AND ONTARIO ***
                ***ONTARIO***

CITY           SKY/WX    TMP DP  RH WIND       PRES   REMARKS
GERALDTON      CLOUDY    61  46  59 SW8       29.82R
THUNDER BAY    PTCLDY    52  48  87 NE7       29.78S
SIOUX LOOKOUT  MOCLDY    54  54 100 S6        29.70R
TORONTO        MOCLDY    59  55  88 W7        29.86R
BIG TROUT LK   CLEAR     55  48  76 SE6       29.65S
PICKLE LAKE    NOT AVBL
DRYDEN         CLOUDY    59  55  88 S9        29.70R
KENORA         PTCLDY    59  43  55 SW8       29.70R
$$
                *** MANITOBA***

CITY           SKY/WX    TMP DP  RH WIND       PRES   REMARKS
BRANDON        PTCLDY    54  45  71 W9        29.69S
DAUPHIN        CLEAR     55  45  67 W13       29.64R
ISLAND LAKE    MOCLDY    61  45  55 SW6       29.56
PILOT MOUND      N/A     52  43  71 SW5         N/A
THE PAS        DRIZZLE   52  50  93 W10       29.53S
THOMPSON       MOCLDY    55  54  94 NE6       29.50R
WINNIPEG       MOCLDY    61  46  59 W7        29.68R
LYNN LAKE      CLOUDY    48  46  93 NE10      29.58R
CHURCHILL      CLOUDY    34  32  93 NE16      29.70F WCI  23
GILLAM         RAIN      54  52  94 NE5       29.56S
$$
                ***SASKATCHEWAN***

CITY           SKY/WX    TMP DP  RH WIND       PRES   REMARKS
ESTEVAN        PTCLDY    57  39  51 W15       29.76R
KINDERSLEY     PTCLDY    54  48  82 SW9       29.77S
LLOYDMINSTER   PTCLDY    61  43  51 N5        29.74R
PRINCE ALBERT  PTCLDY    57  39  51 N12       29.69R
REGINA         MOCLDY    54  34  47 W10       29.73S
YORKTON          N/A     54  45  71 W8        29.68R
N. BATTLEFORD  CLEAR     57  39  51 NW5       29.74R
LA RONGE       MOCLDY    52  50  93 NW6       29.67S
SASKATOON      PTCLDY    57  37  47 N7        29.72R
SWIFT CURRENT  LGT RAIN  50  46  87 SW9       29.82R
$$
NOTE: THESE ARE AUTOMATED STATIONS WITH LIMITED QUALITY CONTROL
      "FAIR" INDICATES FEW OR NO CLOUDS BELOW 12,000 FEET WITH NO
      SIGNIFICANT WEATHER AND/OR OBSTRUCTIONS TO VISIBILITY.
      SKY/WX - SKY CONDITION AND SIGNIFICANT WEATHER.
      TMP - AIR TEMPERATURE.    DP   - DEWPOINT TEMPERATURE.
      RH  - RELATIVE HUMIDITY.  PRES - PRESSURE.
      HX  - HEAT INDEX.         WCI  - WIND CHILL INDEX.
$



USA.gov is the U.S. government's official web portal to all federal, state and local government web resources and services.